Dewpoint
75 73 70 70 70 69 69 70 59 62 62 53 46 47 49 52 54 55 53 53 49 51 52 53 53 56 58 60 60 60 62 61 59 52 56 67 72 71 73 73 72 72 73 74 74 75 75 75 75 76 76 76 76 76 76 75 75 76 76 76 76 77 76 76 76 76 76 77 77 77 77 77 77 77 77 77 77 77 77 77 76 76 76 76 76 75 75 75 75 75 74 75 75 75 75 75 75
70 69 69 69 68 68 65 67 61 53 54 50 47 48 50 53 52 49 51 50 50 50 52 52 54 58 60 59 60 61 62 64 64 64 68 70 71 72 72 72 72 71 73 74 74 74 74 75 76 76 76 76 76 76 75 75 75 75 75 76 76 76 76 76 76 76 77 77 77 77 77 77 77 77 77 77 77 77 76 76 76 76 76 76 75 75 75 75 75 75 75 74 75 75 74 75 75
69 68 67 67 68 70 68 64 56 52 47 52 54 48 51 48 49 49 49 49 50 52 54 53 53 57 57 60 60 60 62 65 66 67 68 70 69 71 72 72 72 73 73 74 74 74 74 75 76 75 75 75 76 76 76 75 75 75 75 75 76 76 76 73 76 77 77 77 77 77 77 77 77 77 77 77 77 77 76 76 76 76 76 76 75 75 75 75 75 75 75 74 75 75 74 74 74
68 67 66 67 67 67 63 58 58 54 46 54 52 52 53 48 48 48 49 50 52 54 56 56 54 54 57 59 59 62 62 63 66 66 67 68 69 71 72 72 73 73 73 73 73 74 75 75 76 75 75 75 76 76 76 75 75 74 74 75 75 75 76 75 76 77 77 77 77 77 77 77 77 77 77 76 76 76 76 76 76 76 76 76 75 75 75 75 75 74 74 75 75 75 74 74 74
67 68 65 67 65 62 60 57 51 51 48 50 49 50 47 48 48 49 50 51 50 51 54 56 56 56 57 57 61 60 62 65 66 67 66 69 71 71 72 72 71 71 71 73 73 73 74 75 76 76 75 76 76 76 76 76 75 75 74 74 74 75 76 76 76 77 77 76 76 77 77 77 76 76 76 76 76 76 76 76 76 76 76 76 76 76 75 75 75 75 74 74 74 74 74 74 74
70 69 66 60 63 60 58 53 46 39 42 51 47 46 48 48 48 50 50 50 51 53 54 55 56 57 59 59 61 62 64 62 66 67 68 69 69 70 71 71 71 72 72 73 73 72 74 76 76 76 75 75 76 75 76 76 75 75 74 74 75 75 76 76 76 76 76 76 76 76 76 76 76 76 76 76 76 76 76 76 76 76 76 76 75 75 75 74 74 74 74 74 74 74 74 74 74
68 66 61 63 60 59 55 54 34 37 41 45 45 46 48 49 50 49 49 50 51 50 53 54 55 54 56 62 61 62 65 65 65 67 68 69 69 70 71 70 71 72 72 73 73 73 74 76 76 76 76 76 75 75 75 76 76 75 74 74 75 75 75 76 76 76 76 76 76 76 76 76 76 76 76 76 76 76 76 76 76 76 76 76 76 75 75 75 74 74 74 73 73 73 73 74 74
68 61 61 60 57 56 55 51 33 42 44 46 47 46 48 49 50 49 48 47 48 48 52 55 57 57 59 61 61 63 64 66 66 67 68 69 69 70 70 71 72 71 71 72 73 73 76 76 76 76 76 76 76 76 75 75 76 76 75 75 76 76 76 76 76 76 76 76 76 76 76 76 76 76 76 76 76 76 76 76 76 76 76 76 76 75 76 75 74 74 74 74 74 73 73 73 74
63 59 57 54 50 50 47 32 34 38 44 47 48 51 56 49 50 50 49 48 48 50 51 53 54 56 60 60 60 62 64 67 67 69 69 69 70 70 70 69 71 71 71 72 73 74 74 76 76 76 76 76 76 76 76 76 77 77 77 76 76 76 76 76 76 76 76 76 76 76 76 76 76 75 76 76 76 76 76 76 76 76 75 76 76 75 75 75 75 74 74 74 74 74 73 73 73
59 56 54 52 51 46 31 29 31 38 39 43 46 48 49 50 50 49 48 48 49 51 53 55 57 57 59 59 61 61 62 66 68 68 69 68 69 69 69 68 71 71 72 72 72 73 74 76 76 76 76 76 76 76 76 76 77 77 77 76 77 76 76 76 76 76 76 76 76 75 76 76 75 75 76 76 75 75 76 77 76 76 76 75 75 75 75 74 74 74 74 74 74 74 74 74 74
61 62 59 51 46 41 33 32 33 35 39 43 44 47 49 49 49 49 50 49 51 50 53 55 54 56 58 60 62 64 65 66 67 67 68 69 69 68 68 69 69 72 71 72 72 73 74 74 77 76 76 77 76 76 76 77 77 77 77 77 77 77 76 76 76 76 76 76 75 75 75 75 75 75 76 76 75 75 76 77 76 75 75 75 75 76 75 75 74 74 74 74 74 74 74 74 74
55 56 50 48 43 44 31 29 29 33 37 40 42 44 47 47 49 48 49 49 49 49 51 52 55 59 57 58 59 64 64 66 67 67 67 69 69 69 69 69 69 70 71 71 73 73 74 75 75 76 76 76 75 76 76 77 77 77 77 77 77 76 76 76 76 76 76 76 75 75 75 75 75 76 76 75 75 75 76 77 76 75 75 75 75 75 75 75 75 74 74 74 74 73 74 74 74
52 51 52 44 41 50 31 33 33 35 36 38 40 43 44 46 46 47 49 48 49 49 50 53 56 56 55 58 60 62 64 65 66 67 67 68 70 68 69 68 69 71 71 72 72 73 74 74 74 75 75 75 76 76 77 77 77 77 77 77 77 77 76 76 76 76 76 76 76 75 75 75 75 75 75 75 75 75 76 76 76 76 76 75 74 75 75 75 74 74 73 74 73 73 74 73 74
48 52 46 46 43 42 43 35 35 36 35 34 38 41 43 43 44 46 47 47 48 49 52 54 55 57 57 58 60 60 62 63 65 65 68 69 68 67 67 67 70 70 71 72 73 73 73 74 74 75 75 76 76 77 77 78 77 77 77 76 76 76 76 76 76 76 76 75 75 75 75 75 75 75 75 75 75 75 76 76 75 76 75 74 74 74 74 74 74 74 74 74 73 73 73 73 74
47 54 48 50 40 40 42 57 35 35 37 37 38 40 42 44 43 43 46 47 49 51 51 53 57 56 55 56 58 62 60 62 65 66 68 69 68 69 69 68 68 70 71 72 73 73 72 73 73 75 76 75 76 76 76 77 77 77 77 76 76 76 76 76 76 76 75 75 75 75 75 75 75 75 75 75 75 76 76 75 75 74 74 74 74 74 74 74 74 74 74 73 73 73 73 73 73
46 45 50 50 46 37 43 39 36 37 37 39 40 40 38 41 42 43 47 49 49 50 50 52 54 54 56 56 59 60 61 62 65 66 66 68 68 69 69 69 69 69 70 71 72 72 73 73 74 75 75 76 76 75 76 76 76 76 76 76 76 76 76 76 76 75 75 75 75 75 76 75 76 75 76 75 75 75 76 74 76 75 74 74 74 74 74 75 75 75 74 74 74 74 74 74 74
43 50 53 45 43 40 37 37 36 37 39 39 40 38 37 41 44 46 48 47 46 47 49 51 52 53 55 56 59 60 61 63 66 66 67 68 68 67 69 69 70 70 70 71 71 71 71 73 73 74 75 76 75 75 76 76 76 76 76 77 77 76 76 76 76 76 76 75 75 76 76 75 77 76 76 74 75 75 76 76 76 75 75 74 75 75 75 76 76 76 76 76 75 75 75 75 75
40 57 59 48 38 37 39 38 36 40 40 40 41 38 40 40 40 42 44 45 44 46 48 49 50 52 56 58 59 60 62 63 64 66 66 67 68 68 68 68 68 69 69 70 72 71 71 72 73 74 74 74 74 75 75 75 76 76 76 77 76 76 76 76 76 76 76 76 76 76 77 76 76 77 76 75 76 75 77 77 76 76 75 75 75 76 76 76 76 77 76 76 76 76 75 75 76
38 49 49 42 40 39 44 43 41 39 41 42 41 38 38 38 37 40 43 43 43 46 47 48 49 54 57 59 59 61 61 62 63 65 65 65 66 67 67 69 69 69 70 71 71 71 72 72 73 73 73 74 74 74 74 75 76 76 76 76 76 76 77 76 76 76 76 76 77 76 77 75 75 77 77 76 75 76 75 77 76 76 76 76 76 76 76 76 77 77 77 77 77 77 76 77 77
36 40 40 42 39 38 39 40 38 40 41 41 39 40 36 36 36 42 41 40 44 45 45 48 53 55 57 59 59 60 61 62 63 63 63 64 65 65 66 66 67 70 70 71 71 71 72 73 74 74 74 75 74 73 73 74 75 76 75 75 75 76 76 76 76 76 77 76 76 76 76 77 76 78 75 75 75 75 75 77 76 76 76 76 76 76 76 77 77 77 77 78 78 77 76 75 74
35 35 37 40 39 35 33 44 40 41 41 40 41 40 35 35 37 41 39 39 42 43 44 49 53 57 57 59 60 60 60 61 62 62 62 63 64 64 65 66 66 68 70 71 71 72 71 72 73 74 75 75 74 73 73 73 74 74 74 74 74 74 75 75 76 76 76 77 77 76 74 75 75 76 77 76 76 76 76 76 76 76 76 76 76 77 77 76 77 77 77 76 77 75 74 74 74
31 32 40 37 39 40 32 35 37 40 42 41 37 38 35 37 33 40 36 40 40 41 45 52 54 57 57 58 60 60 60 60 60 60 61 62 62 63 63 65 66 66 68 69 70 70 70 71 71 72 73 74 74 73 73 73 74 74 74 74 74 75 74 74 75 75 77 77 76 74 75 75 76 76 76 76 75 78 76 78 78 76 75 74 76 76 76 76 77 76 76 74 73 73 73 74 74
25 28 40 39 41 36 30 33 36 37 41 40 35 39 36 37 35 38 36 41 41 44 47 51 54 57 57 59 59 60 59 59 59 60 60 60 61 61 61 63 64 65 67 68 70 70 71 71 72 71 72 73 73 74 73 72 73 74 75 75 75 77 75 75 75 74 77 77 77 75 74 73 74 74 75 76 76 76 75 77 74 75 75 76 74 76 74 76 74 76 75 76 75 71 75 74 75
24 23 32 33 33 29 29 33 28 33 41 41 42 40 35 36 33 37 37 34 41 44 48 52 55 56 57 58 59 58 58 59 58 59 60 60 60 61 61 61 63 65 66 68 69 69 71 69 71 72 73 73 73 73 73 72 73 73 74 75 74 74 75 75 75 75 76 76 76 75 75 74 73 73 74 76 77 76 75 74 74 75 75 74 76 75 74 76 78 77 76 75 74 75 70 72 72
18 22 25 30 32 31 32 31 32 38 38 41 42 39 37 38 35 36 38 38 42 44 49 52 55 55 56 57 58 57 59 59 58 59 59 60 61 61 61 62 63 65 65 67 68 69 70 70 71 71 72 74 72 71 71 72 73 73 73 73 73 75 75 77 76 78 76 75 76 77 76 73 73 74 74 74 75 75 75 77 75 76 76 76 77 74 75 76 75 75 76 75 76 76 75 73 73
21 20 22 27 31 32 32 28 29 35 36 41 39 38 33 40 36 35 36 38 41 45 49 52 53 54 54 56 57 58 59 58 57 57 58 61 61 61 61 62 63 64 65 67 67 69 69 70 70 70 70 72 73 69 71 71 73 73 73 73 73 74 74 76 76 75 75 75 75 76 75 73 72 73 74 76 76 77 76 76 76 75 75 76 74 76 76 76 76 77 74 74 73 75 75 74 74
18 19 21 25 29 30 29 23 32 33 37 41 38 40 35 40 33 37 36 38 41 46 48 51 52 52 55 54 55 57 57 57 56 57 57 59 61 62 62 63 64 65 66 66 67 68 69 69 69 70 71 74 73 71 72 72 73 72 73 72 73 73 73 73 75 74 75 78 75 77 77 78 74 72 76 77 77 78 77 76 76 76 76 76 76 74 77 76 76 75 75 76 75 75 75 76 74
19 18 22 27 28 30 30 25 30 33 35 37 39 40 40 40 37 38 36 38 41 45 49 50 51 52 53 53 54 59 58 58 57 57 56 58 59 60 62 63 64 65 66 66 67 69 67 68 68 69 70 72 74 71 73 71 73 72 74 72 72 73 74 74 74 74 76 76 75 78 78 78 77 80 77 76 76 77 77 76 76 76 75 76 77 75 77 76 76 76 76 77 75 75 74 74 74
18 18 18 23 23 22 22 25 28 33 34 35 39 40 39 37 31 40 38 38 41 44 47 47 49 50 53 54 54 58 57 57 57 58 56 58 59 59 60 61 63 63 65 65 67 67 67 67 66 69 70 73 73 71 72 72 72 71 73 73 72 70 73 72 72 71 72 75 78 77 78 78 79 78 80 78 77 76 76 77 76 76 77 76 76 75 76 77 77 76 75 76 75 74 74 71 71
17 17 18 22 25 25 27 28 27 31 35 34 38 40 38 39 37 42 40 37 40 42 45 45 47 49 52 53 55 56 56 57 56 58 58 58 58 58 58 59 62 62 64 64 66 65 64 64 65 68 70 70 73 70 72 72 73 72 73 72 74 74 70 70 72 73 74 75 77 78 78 78 78 78 79 79 78 76 76 76 76 76 76 76 77 77 76 76 77 77 75 75 73 74 70 72 72
17 18 19 21 22 25 27 28 27 30 34 34 37 38 38 40 37 42 42 38 39 41 43 45 46 47 50 51 54 55 55 59 56 56 57 57 58 58 59 60 61 63 65 64 64 65 63 63 65 66 70 72 73 72 73 73 73 71 73 73 73 74 72 70 68 70 74 75 76 78 79 79 78 79 79 78 77 77 74 76 77 76 76 78 76 76 76 76 76 76 75 73 71 72 69 68 67
19 18 18 20 21 26 27 28 29 28 35 35 36 36 39 38 38 43 43 39 38 42 41 42 45 46 48 49 52 53 55 55 56 56 56 57 58 59 61 61 63 62 66 65 63 64 63 66 69 65 69 72 73 74 74 75 74 75 74 73 73 74 71 69 70 73 72 73 74 77 78 79 79 79 78 79 78 77 76 76 76 77 76 77 77 76 76 74 74 74 74 73 72 68 70 65 68
18 19 19 20 20 23 27 27 30 30 35 35 36 33 36 37 40 43 43 40 37 41 40 41 44 45 47 48 51 53 54 55 56 55 55 56 59 61 62 63 64 65 63 65 66 67 67 66 70 64 66 70 73 74 75 76 76 75 75 72 69 74 70 70 73 73 73 74 75 77 78 79 78 78 79 79 79 77 76 75 74 76 76 76 78 77 74 74 74 69 74 76 74 71 66 58 63
16 19 20 20 21 23 26 28 31 30 36 35 36 33 37 42 40 42 43 42 39 39 40 40 43 44 48 48 50 52 55 55 55 57 55 55 59 60 59 65 64 64 66 65 66 67 68 69 69 69 70 70 74 74 75 75 75 76 75 74 75 74 74 70 71 74 74 73 75 77 78 78 79 78 79 79 79 78 77 76 73 77 76 78 76 75 74 72 72 72 73 73 71 71 70 66 67
15 19 20 20 23 24 25 28 30 31 32 34 36 34 36 40 39 41 42 43 41 40 40 40 41 43 46 46 48 51 53 55 55 58 55 57 56 58 59 61 61 64 63 63 68 70 71 71 70 75 70 70 71 74 76 76 76 77 74 76 74 76 76 75 73 74 72 74 72 76 78 78 78 78 78 79 79 80 76 77 76 76 76 76 74 72 73 73 72 72 71 70 74 72 72 70 70
16 19 20 21 22 24 25 27 32 32 31 32 36 35 35 38 38 41 42 43 43 43 43 41 41 42 45 46 46 48 52 53 56 56 56 55 57 58 59 59 61 61 63 66 70 69 71 72 71 73 73 70 72 74 75 74 74 74 73 74 74 74 75 74 75 76 75 74 73 77 79 78 78 77 78 79 79 77 76 76 75 74 73 76 77 71 71 71 70 71 72 66 69 72 71 72 70
17 20 22 23 23 23 26 27 30 32 31 32 35 36 35 38 39 41 42 43 44 43 44 43 43 43 44 45 45 47 52 51 55 56 56 56 56 59 61 61 62 63 67 69 69 69 71 71 72 72 73 73 73 74 74 73 73 73 74 73 73 75 75 75 74 74 73 74 76 78 79 77 78 78 79 79 78 78 78 76 74 73 74 73 77 75 71 70 72 70 71 75 71 71 69 71 70
17 19 20 22 22 22 26 27 28 32 31 32 35 36 37 39 42 40 42 43 43 43 45 46 44 43 44 47 47 48 51 51 54 56 56 54 56 58 59 63 64 65 68 69 69 71 72 72 72 72 73 74 73 74 75 75 74 73 73 73 73 72 75 74 73 74 70 71 78 78 78 78 78 78 78 78 77 77 76 75 74 74 76 73 77 74 72 70 69 68 73 74 71 72 70 65 68
18 18 19 20 22 24 26 25 27 32 31 32 35 36 37 38 38 41 44 43 45 45 45 46 48 47 48 47 48 49 49 52 51 54 55 55 56 57 61 63 63 63 65 68 70 72 73 72 73 74 73 73 73 74 76 75 75 75 74 73 73 73 75 75 73 72 74 71 75 77 78 78 77 77 78 78 76 76 75 75 74 75 74 73 74 75 73 72 74 70 71 70 71 71 70 70 71
15 15 18 18 21 24 25 25 26 30 32 31 37 35 37 39 40 41 43 44 45 46 46 46 47 48 48 46 48 50 49 54 51 53 53 53 55 58 61 63 65 65 67 67 69 71 72 73 74 75 74 74 73 75 75 75 75 76 76 76 74 73 73 74 76 76 76 74 74 74 77 78 77 77 77 77 76 75 75 74 75 75 75 73 76 73 75 72 75 75 70 73 72 67 68 69 69
13 13 16 17 19 22 23 23 26 29 32 32 33 35 36 38 38 38 43 43 44 45 45 47 49 47 48 48 48 50 50 54 53 51 55 55 56 56 62 64 63 64 66 67 68 70 71 73 74 75 75 74 74 75 75 76 76 76 76 76 75 75 74 74 74 75 73 74 71 72 74 76 77 76 75 76 75 75 75 75 75 74 74 74 74 74 74 70 70 69 70 73 70 69 65 68 69
11 14 16 17 20 22 22 24 24 27 30 32 31 34 37 39 38 38 40 44 43 46 47 47 51 49 50 49 50 51 51 54 56 55 55 55 56 59 64 65 64 64 67 67 68 70 72 73 74 75 76 75 74 75 75 76 75 75 75 74 73 74 74 73 72 72 71 71 68 68 71 74 75 76 76 76 74 74 75 75 75 73 74 73 73 72 72 74 72 71 68 69 70 72 70 68 68
12 14 16 17 18 20 22 23 23 26 29 32 32 32 36 38 37 38 40 41 42 46 47 45 49 52 49 50 50 50 50 50 54 54 54 54 57 59 63 65 64 64 66 68 68 70 72 74 74 75 75 75 75 75 75 76 76 76 75 74 73 74 74 74 75 73 73 73 72 71 74 74 76 75 74 74 74 74 74 75 75 74 74 73 72 76 77 71 68 67 69 70 71 73 71 70 69
8 11 14 16 18 18 20 22 23 26 29 33 34 33 33 39 38 40 40 41 42 45 47 48 45 50 47 49 47 53 51 51 53 56 57 57 59 58 60 65 65 64 65 67 68 70 72 74 74 75 75 75 75 75 75 76 76 76 75 75 75 74 73 74 75 76 76 76 73 71 74 74 76 76 74 75 74 73 74 74 75 73 74 70 72 72 72 69 73 69 71 71 72 73 72 71 68
7 9 11 14 17 19 20 21 22 24 27 34 31 33 36 35 39 40 40 40 44 43 44 47 48 48 49 50 50 50 49 53 53 55 56 57 59 59 62 65 65 64 65 67 69 70 72 74 75 75 75 76 76 76 76 76 76 76 76 76 75 75 74 75 75 75 75 75 74 75 75 74 76 76 76 74 74 74 74 74 73 73 73 72 71 71 70 73 71 72 72 72 71 72 74 73 71
8 7 9 12 16 17 19 20 21 26 31 33 34 31 33 36 37 36 39 39 40 41 43 44 49 50 50 49 50 49 52 57 53 53 57 58 59 59 60 63 65 65 66 69 70 70 72 74 75 76 76 76 76 77 76 76 76 77 76 76 75 75 75 75 74 75 76 76 75 75 76 76 75 76 76 75 74 73 72 72 72 71 71 68 71 70 70 70 69 69 71 71 72 71 75 74 71
6 7 9 10 12 17 21 22 25 28 28 30 27 29 31 32 37 36 37 37 38 39 43 44 48 49 48 49 48 49 51 54 54 54 57 60 59 61 60 62 66 67 67 69 69 70 71 73 75 76 76 76 76 76 77 77 76 77 76 76 76 75 75 75 75 75 75 76 75 75 76 76 76 75 73 75 74 72 72 71 68 70 71 71 73 70 72 68 67 69 71 72 71 71 71 71 71
4 5 7 9 15 20 22 21 26 23 23 30 25 26 28 30 33 36 39 38 36 37 38 42 44 47 46 48 46 48 51 54 54 55 55 61 63 62 62 63 66 68 68 69 68 70 72 73 75 76 76 76 76 76 76 76 76 77 76 76 76 76 75 74 74 74 74 75 75 75 76 76 76 75 75 73 71 69 73 71 71 71 71 72 71 72 73 73 68 68 72 72 72 72 71 71 69
-1 4 10 11 17 19 20 21 18 17 20 26 23 25 27 29 34 34 35 35 36 37 36 39 42 44 46 44 50 52 54 52 55 59 60 61 62 62 62 65 67 69 68 69 68 67 71 74 75 75 76 76 76 76 76 76 77 77 76 76 76 76 76 75 75 74 75 75 75 75 76 75 75 75 74 73 70 70 72 72 71 72 71 71 71 71 72 71 73 71 70 70 71 70 72 71 71
-4 4 12 16 16 17 18 19 24 21 18 17 20 24 25 29 32 34 33 35 36 37 40 40 43 45 49 51 54 51 50 51 52 54 56 60 62 62 63 65 67 68 68 69 68 69 71 73 75 75 76 77 76 76 76 76 77 77 77 76 76 76 76 76 76 74 75 76 76 75 74 74 74 73 71 72 70 69 70 71 71 71 72 72 73 72 71 73 71 74 70 70 69 71 71 70 71
5 8 9 14 18 14 19 19 18 17 20 18 16 21 27 26 31 32 33 35 38 36 36 43 45 46 52 50 50 47 48 51 55 57 57 58 62 63 62 64 66 68 67 66 67 70 71 73 75 76 76 77 76 76 76 76 76 77 76 76 77 77 76 76 76 75 75 76 75 75 75 74 74 73 72 72 73 72 70 71 71 70 71 71 72 71 71 71 71 71 71 69 70 71 70 71 71
4 5 7 9 12 16 14 18 16 19 19 18 23 20 24 26 36 34 35 31 35 36 37 40 45 45 46 47 47 46 48 49 49 56 58 60 63 65 62 63 65 66 68 66 67 70 71 72 75 76 76 77 76 76 76 76 76 76 77 76 76 77 76 76 76 76 76 76 76 75 75 75 74 73 73 72 72 72 71 70 70 69 71 71 71 72 71 70 71 69 71 70 69 68 69 69 70
-3 -2 2 4 6 8 17 21 18 20 20 21 26 23 23 27 29 29 32 34 34 36 34 34 40 38 45 46 46 48 48 49 51 54 57 60 60 63 63 62 64 65 66 66 68 70 71 72 74 76 77 77 77 76 76 76 77 76 76 76 76 76 76 76 75 75 73 75 76 76 75 74 74 74 72 73 71 72 72 71 69 68 70 71 71 71 70 71 70 70 69 70 69 67 70 69 69
-4 -7 -4 0 4 9 18 13 23 19 18 21 17 15 21 23 25 31 31 32 31 34 35 33 38 41 43 44 47 49 48 51 54 57 60 60 61 63 62 60 60 64 65 67 69 70 72 72 73 75 76 77 77 76 76 76 77 76 76 76 76 76 75 75 75 75 75 75 75 76 75 74 73 73 71 71 72 71 72 72 70 69 69 69 70 69 70 70 70 69 69 70 69 69 71 70 70
-2 -10 -3 1 8 10 16 19 18 17 20 19 23 21 21 23 27 26 30 31 33 36 38 35 33 35 38 47 49 53 53 51 54 55 60 60 60 63 63 60 58 62 67 68 69 69 70 72 73 73 75 76 76 75 76 77 77 76 76 76 76 76 76 75 75 76 75 75 74 75 74 74 73 73 73 73 72 71 71 70 71 70 69 70 70 69 70 69 70 69 68 69 69 69 70 70 70
1 -4 -9 -3 2 10 13 17 23 24 19 18 19 20 20 25 23 25 29 34 38 35 36 34 32 35 38 50 50 53 52 52 52 53 56 58 58 58 60 60 58 60 66 67 67 66 66 69 72 73 74 76 77 77 77 77 76 76 76 77 77 77 76 76 76 76 75 74 74 74 74 73 73 73 72 73 72 70 70 69 68 68 67 68 69 69 68 69 70 69 68 67 67 69 69 69 67
1 -4 -5 -6 1 6 9 12 16 19 22 19 21 19 22 27 23 22 31 36 36 35 38 43 38 34 33 40 44 51 52 53 51 52 51 55 58 57 59 60 59 59 64 65 65 65 65 66 69 71 74 75 76 76 76 76 76 76 77 77 77 77 76 76 75 75 75 74 74 74 74 73 74 73 72 71 71 71 70 69 67 68 68 68 69 69 69 70 70 69 70 69 69 68 68 68 68
2 -3 -5 -9 2 11 11 13 8 14 17 22 20 21 29 23 19 35 35 37 31 36 38 39 38 33 39 49 39 47 49 55 56 55 49 50 57 60 59 61 62 59 60 63 65 65 64 64 66 69 71 73 74 76 76 76 77 76 76 77 77 76 76 76 75 75 74 74 74 75 75 75 73 73 72 70 71 71 70 70 67 69 69 69 70 70 69 70 69 69 68 68 68 68 67 67 68